Vertical_Velocity
2 2 -0 0 0 -1 1 1 -0 -0 -1 -2 0 -0 1 -0 1 -2 0 -3 -2 -3 -1 -2 0 2 -1 -1 -3 -3 -3 2 -3 4 -1 -2 0 -0 -3 -4 2 -5 2
3 2 0 -1 -1 -1 0 1 0 -1 0 -1 -1 0 2 0 -1 0 -1 -0 1 -2 1 -0 -0 -3 -2 -2 -2 -2 -3 -2 -5 -5 1 3 -1 0 -2 -2 -3 -3 1
5 0 -0 1 1 1 -2 3 3 1 0 -1 1 -2 2 -1 1 1 -2 -1 1 -1 4 -2 -4 -2 -4 -1 -2 -1 -2 -2 -6 2 -2 2 -1 1 -0 -3 -2 -3 -1
3 1 -1 -2 3 -5 2 4 -1 1 -2 -1 -4 5 1 -1 1 -2 -2 1 -1 0 1 -2 0 0 0 0 -2 -1 -3 2 -5 -6 0 1 -5 1 -1 -1 -1 -1 -2
1 1 -1 1 3 2 6 -1 -3 4 -0 0 2 -0 4 -0 0 -2 -3 -2 -1 -0 -2 2 -3 0 5 -2 -3 -3 4 -6 -3 8 -15 -2 -0 -1 -3 0 -1 -0 -0
1 -3 -3 3 9 11 -3 1 -2 -5 3 -1 0 3 2 -3 1 1 -1 -1 -1 -1 -2 -0 -3 -1 -2 -0 -2 -1 -2 -2 -1 -8 -0 -2 -1 -0 -3 -2 0 -0 0
4 -1 0 18 15 4 -0 -4 -1 0 -5 4 -1 0 1 -1 -1 -0 -1 -0 1 -0 -1 -4 -4 -1 -6 -3 -1 0 -3 -2 -0 -6 -3 2 -3 -0 -2 -2 -1 -1 -1
17 19 20 20 7 4 -1 -7 -1 3 -2 -3 1 -1 0 -1 -4 -3 1 -0 -2 -1 -0 -4 2 -5 1 -2 -2 -3 -1 -3 -3 -12 8 -1 -1 -2 -2 -1 0 1 -0
4 35 38 12 6 -4 -5 -6 -2 1 1 0 0 -2 1 -0 1 1 1 1 2 -1 -2 -3 -0 1 1 2 -2 -3 0 -2 -3 4 -4 0 -2 -1 -1 -2 -0 1 2
4 25 28 20 2 -9 -9 -3 -4 -2 -0 1 2 -0 -0 0 -2 -1 -2 0 4 -1 -0 -0 -4 -5 2 1 -3 0 1 -3 -3 -5 -9 -1 -2 -0 -2 -2 -2 1 0
2 38 22 -3 -4 -12 -3 -3 -2 3 1 -0 -2 -3 -0 -5 0 -0 -0 -0 -1 1 -1 -1 1 -3 1 4 -0 -7 -3 -4 -2 -8 -1 -4 -1 -0 0 -0 -2 -2 -0
56 12 -1 -4 -10 -2 -1 -3 -1 2 -0 -2 -2 2 -11 2 8 0 -0 2 -3 1 -2 0 1 -1 -4 -3 -1 -0 1 -3 0 -5 6 -5 -3 -2 -1 -0 1 -2 -1
3 -2 -13 -11 -4 -3 -3 -3 -4 -3 -1 4 0 -2 -11 4 -5 5 -2 -3 -2 -7 -5 -0 -0 -10 -0 -2 0 -0 -1 -3 -0 -2 8 -1 -1 -3 -1 0 -1 0 -1
-7 -3 -7 -3 -3 -4 -4 -1 5 -1 2 1 -2 2 2 1 -2 -4 -0 1 2 1 2 -5 -0 -1 5 -4 1 2 -1 -1 -2 -2 3 -4 1 4 -3 1 1 1 -0
-1 1 -3 -3 -8 -0 0 -1 -9 3 -3 -0 12 -2 -9 0 -2 -2 -2 -1 -4 -6 -4 -4 -4 -0 -2 -1 -0 0 0 1 -3 -3 -4 1 -4 1 3 -2 0 -3 1
1 1 1 -2 -3 5 3 -0 -1 3 1 4 4 -2 1 -2 -10 -1 -3 -8 -5 -11 -2 -4 -1 -1 -3 -1 -3 -5 1 0 0 -0 -2 0 4 4 1 -0 -1 -1 -4
-1 1 -3 -3 4 0 -1 3 1 3 0 -3 3 0 -1 -1 -2 -2 -1 2 -4 -6 -5 -4 -4 -7 -5 -7 -5 -4 -3 -1 -2 -2 -1 -6 -4 7 -1 1 9 6 -8
7 7 3 5 1 7 1 4 2 4 1 2 -2 -11 -7 1 2 -0 0 -4 -6 1 -1 -2 -1 2 -0 2 3 1 3 1 1 -1 3 -6 -3 -5 3 2 -2 7 3
-1 -2 -1 -2 3 -3 2 -4 -0 -1 -2 -0 1 2 -0 4 -1 -0 -2 -1 -1 -3 -2 5 0 -5 -3 -2 -3 -4 -6 -0 -8 -3 -8 1 -8 -3 -4 -12 -7 1 -8
-3 -5 -5 1 5 1 -1 4 1 1 1 3 2 -1 -1 0 -3 -3 1 1 -7 -6 -4 -6 -1 -5 -6 -6 -2 -2 -3 0 2 -10 3 2 -2 -2 -5 -5 -3 -7 -7
2 -1 -1 -2 1 1 -3 1 -2 -2 -1 -0 -1 -0 3 -2 -2 -3 0 4 7 -11 -4 2 2 1 4 -3 -4 2 -1 1 8 -7 -4 -5 -4 -2 -4 -5 -6 -7 -3
4 -3 4 -3 6 -3 -1 -0 2 2 1 2 1 2 -2 -2 -2 1 -8 -7 -1 5 -3 -3 -1 -0 -2 -3 -4 1 1 17 -1 5 -3 -1 -4 -11 -8 -3 -9 -9 -14
0 -4 -1 -3 2 -4 -2 1 -1 -1 -2 0 -3 -0 -5 -2 1 -4 2 -1 -4 -4 1 -1 -4 -1 -1 5 -2 -12 -8 -3 -9 1 9 10 -2 -5 -6 -11 -12 -12 -9
-4 -6 -9 -4 0 0 0 0 -2 -4 1 -4 -1 4 4 2 -1 -3 -1 3 1 -2 -3 -2 -2 -3 -5 -5 3 3 -3 -11 -15 -8 4 4 -6 3 3 -3 -3 -2 -7
1 -0 5 3 0 0 -2 -1 -1 -9 -2 -3 -6 -6 -12 8 5 2 8 7 8 8 4 1 -2 -0 2 -5 -11 -5 -4 -7 -4 -12 -13 -0 -3 3 -8 -6 -4 1 2
1 -1 2 3 5 -2 -2 0 -1 -1 -5 -0 -7 -6 -6 -3 -4 -9 -6 -5 -5 -6 -5 -6 -5 -2 -4 -2 -9 -1 -7 -8 -4 -8 -13 -7 -24 15 -0 -1 -1 -1 -3
Height
5840 5841 5842 5842 5842 5842 5843 5842 5842 5841 5841 5840 5839 5838 5838 5838 5839 5839 5839 5839 5840 5840 5840 5840 5840 5839 5837 5835 5834 5833 5831 5829 5827 5827 5826 5826 5826 5826 5825 5824 5823 5822 5822
5833 5836 5838 5837 5837 5838 5838 5838 5837 5837 5837 5837 5836 5836 5836 5836 5836 5837 5837 5838 5838 5839 5838 5838 5837 5835 5834 5833 5832 5830 5828 5826 5825 5825 5823 5825 5823 5824 5823 5821 5820 5819 5818
5831 5831 5831 5832 5832 5834 5835 5833 5834 5834 5834 5833 5833 5834 5834 5834 5834 5835 5836 5836 5836 5836 5835 5835 5833 5833 5832 5830 5828 5827 5826 5823 5822 5824 5821 5823 5821 5820 5819 5818 5817 5815 5815
5826 5825 5824 5824 5826 5828 5829 5830 5830 5829 5829 5829 5829 5830 5832 5833 5834 5834 5834 5834 5834 5834 5833 5832 5831 5830 5829 5828 5827 5826 5823 5821 5820 5819 5819 5820 5817 5817 5816 5815 5813 5812 5810
5821 5819 5818 5818 5819 5822 5822 5823 5825 5825 5825 5825 5826 5828 5829 5831 5831 5831 5831 5831 5831 5830 5829 5829 5828 5827 5826 5825 5824 5822 5821 5819 5818 5816 5816 5813 5814 5813 5812 5812 5810 5808 5807
5813 5812 5810 5811 5812 5815 5813 5815 5820 5822 5820 5821 5824 5826 5827 5828 5828 5828 5828 5828 5829 5827 5827 5826 5826 5824 5822 5821 5820 5819 5817 5816 5815 5814 5813 5811 5810 5810 5808 5807 5806 5805 5804
5809 5805 5804 5805 5808 5809 5810 5810 5816 5818 5818 5820 5823 5825 5825 5827 5827 5826 5826 5826 5826 5826 5825 5824 5822 5820 5820 5817 5816 5815 5814 5812 5811 5810 5810 5806 5805 5803 5803 5802 5800 5799 5799
5803 5798 5798 5799 5800 5805 5807 5809 5814 5814 5818 5819 5822 5823 5824 5824 5824 5822 5823 5823 5823 5822 5821 5819 5818 5817 5816 5814 5813 5811 5810 5809 5807 5805 5805 5803 5800 5799 5797 5796 5794 5793 5793
5802 5800 5794 5795 5799 5802 5804 5809 5812 5812 5815 5818 5820 5822 5821 5821 5820 5819 5819 5820 5819 5819 5817 5815 5814 5813 5812 5811 5809 5808 5806 5802 5801 5800 5798 5797 5795 5794 5792 5791 5789 5788 5786
5802 5800 5796 5793 5797 5802 5804 5808 5810 5812 5813 5816 5818 5818 5819 5819 5817 5816 5817 5816 5815 5815 5812 5811 5810 5807 5806 5805 5803 5802 5798 5797 5794 5791 5792 5790 5789 5786 5786 5785 5784 5782 5781
5800 5796 5791 5792 5799 5802 5805 5807 5808 5810 5813 5814 5815 5816 5816 5815 5813 5814 5813 5812 5811 5809 5808 5807 5805 5802 5800 5799 5798 5795 5793 5790 5788 5785 5784 5783 5782 5780 5779 5778 5778 5777 5774
5789 5793 5793 5797 5800 5803 5806 5808 5809 5811 5811 5811 5812 5812 5812 5810 5811 5810 5809 5808 5806 5806 5805 5801 5799 5798 5796 5793 5791 5788 5786 5783 5780 5778 5778 5776 5774 5773 5772 5771 5770 5770 5769
5789 5790 5795 5798 5801 5804 5807 5808 5809 5808 5808 5808 5808 5808 5808 5807 5808 5806 5804 5804 5801 5799 5799 5796 5795 5792 5789 5788 5785 5781 5779 5775 5772 5771 5771 5769 5766 5764 5764 5764 5762 5761 5762
5791 5793 5797 5799 5802 5804 5805 5804 5806 5807 5805 5807 5807 5805 5804 5804 5803 5801 5801 5800 5797 5793 5791 5789 5787 5784 5782 5780 5778 5775 5771 5768 5764 5762 5762 5761 5759 5758 5755 5756 5756 5755 5754
5793 5796 5797 5799 5801 5801 5803 5804 5804 5803 5803 5801 5801 5802 5800 5799 5798 5798 5795 5793 5791 5788 5786 5783 5780 5776 5775 5771 5769 5766 5763 5760 5757 5755 5754 5753 5750 5751 5750 5746 5746 5748 5746
5792 5794 5796 5797 5798 5799 5800 5799 5799 5797 5799 5800 5800 5796 5794 5795 5793 5792 5791 5789 5785 5784 5779 5773 5772 5770 5765 5764 5761 5759 5755 5753 5750 5748 5747 5745 5744 5742 5741 5740 5737 5738 5736
5793 5794 5795 5795 5796 5796 5796 5794 5796 5797 5796 5794 5793 5792 5790 5788 5786 5785 5783 5779 5776 5774 5771 5768 5766 5762 5759 5757 5754 5751 5748 5745 5742 5740 5738 5735 5734 5733 5730 5730 5729 5726 5723
5789 5790 5791 5793 5793 5792 5793 5794 5794 5793 5792 5791 5788 5787 5787 5783 5780 5776 5773 5770 5768 5766 5763 5761 5757 5753 5750 5747 5745 5741 5738 5734 5731 5728 5726 5721 5719 5717 5717 5714 5711 5712 5709
5792 5793 5794 5794 5791 5790 5790 5789 5789 5788 5788 5785 5783 5781 5778 5774 5772 5769 5766 5763 5760 5757 5753 5750 5744 5740 5736 5735 5732 5729 5726 5723 5718 5715 5711 5708 5706 5703 5699 5697 5695 5694 5693
5790 5790 5789 5789 5789 5788 5788 5786 5784 5782 5780 5779 5778 5774 5772 5768 5765 5762 5760 5755 5750 5746 5742 5737 5733 5729 5725 5722 5719 5716 5713 5709 5706 5700 5697 5693 5689 5686 5682 5679 5677 5674 5672
5788 5788 5787 5787 5786 5785 5784 5782 5780 5777 5776 5774 5771 5768 5766 5761 5757 5754 5750 5745 5741 5735 5731 5728 5725 5721 5717 5711 5707 5705 5700 5695 5692 5685 5681 5676 5669 5665 5661 5656 5653 5649 5646
5786 5785 5784 5784 5783 5781 5779 5777 5775 5773 5770 5768 5765 5762 5758 5754 5750 5745 5740 5735 5731 5727 5722 5718 5713 5708 5703 5697 5693 5689 5686 5685 5678 5671 5664 5657 5649 5644 5637 5630 5626 5622 5619
5782 5782 5781 5779 5779 5777 5774 5772 5770 5768 5765 5763 5760 5756 5750 5746 5742 5737 5732 5727 5722 5716 5711 5705 5699 5694 5689 5684 5679 5673 5669 5666 5660 5653 5645 5636 5627 5617 5609 5603 5596 5587 5582
5778 5778 5777 5775 5773 5771 5769 5767 5765 5762 5760 5756 5752 5749 5743 5739 5733 5728 5722 5718 5712 5706 5700 5693 5687 5681 5674 5668 5663 5656 5648 5641 5636 5635 5624 5615 5605 5593 5580 5570 5561 5551 5542
5774 5772 5771 5770 5767 5766 5765 5763 5759 5755 5752 5747 5742 5738 5733 5729 5723 5719 5715 5709 5702 5696 5688 5681 5674 5667 5661 5654 5646 5638 5629 5620 5611 5603 5601 5591 5583 5565 5548 5536 5527 5520 5513
5770 5768 5768 5767 5766 5763 5760 5757 5753 5749 5743 5740 5734 5729 5723 5718 5713 5707 5700 5694 5687 5679 5672 5665 5658 5651 5643 5633 5624 5616 5607 5598 5588 5577 5567 5558 5547 5537 5519 5509 5502 5496 5492